Terra Bella
DateTemperatureDew Point
09/06 - 02:30 PM87.3°59.0°
09/06 - 02:15 PM85.8°58.3°
09/06 - 02:00 PM85.9°58.7°
09/06 - 01:45 PM85.1°60.1°
09/06 - 01:30 PM83.5°58.4°
09/06 - 01:15 PM83.4°59.5°
09/06 - 01:00 PM81.8°59.1°
09/06 - 12:45 PM81.1°59.1°
09/06 - 12:30 PM81.0°59.1°
09/06 - 12:15 PM79.9°59.2°
09/06 - 12:00 PM77.7°59.7°
09/06 - 11:45 AM73.2°58.5°
09/06 - 11:30 AM72.6°57.9°
09/06 - 11:15 AM72.3°57.8°
09/06 - 11:00 AM73.8°58.2°
09/06 - 10:45 AM71.8°58.3°
09/06 - 10:30 AM71.3°57.5°
09/06 - 10:15 AM71.8°57.7°
09/06 - 10:00 AM74.7°58.4°
09/06 - 09:45 AM74.8°59.1°
09/06 - 09:30 AM74.4°58.1°
09/06 - 09:15 AM74.0°59.2°
09/06 - 09:00 AM73.0°58.8°
09/06 - 08:45 AM72.1°59.6°
09/06 - 08:30 AM70.7°59.8°
09/06 - 08:15 AM69.0°59.2°
09/06 - 08:00 AM68.0°59.4°
09/06 - 07:45 AM65.9°58.5°
09/06 - 07:30 AM63.7°57.8°
09/06 - 07:15 AM61.9°58.0°
09/06 - 07:00 AM58.7°57.2°
09/06 - 06:45 AM56.8°55.3°
09/06 - 06:30 AM55.8°54.6°
09/06 - 06:15 AM54.8°53.6°
09/06 - 06:00 AM54.7°53.2°
09/06 - 05:45 AM54.9°53.3°
09/06 - 05:30 AM54.8°53.1°
09/06 - 05:15 AM54.6°53.1°
09/06 - 05:00 AM55.1°53.7°
09/06 - 04:45 AM55.2°53.7°
09/06 - 04:30 AM55.5°53.8°
09/06 - 04:15 AM55.6°53.8°
09/06 - 04:00 AM56.0°54.0°
09/06 - 03:45 AM56.3°54.0°
09/06 - 03:30 AM56.8°54.2°
09/06 - 03:15 AM57.0°53.9°
09/06 - 03:00 AM57.4°53.9°
09/06 - 02:45 AM57.8°53.5°
09/06 - 02:30 AM57.9°53.0°
09/06 - 02:15 AM58.3°53.2°
09/06 - 02:00 AM58.9°53.3°
09/06 - 01:45 AM59.3°53.2°
09/06 - 01:30 AM59.7°52.8°
09/06 - 01:15 AM60.0°52.7°
09/06 - 01:00 AM60.7°53.9°
09/06 - 12:45 AM61.3°53.2°
09/06 - 12:30 AM61.9°53.2°
09/06 - 12:15 AM62.1°52.8°
09/06 - 12:00 AM62.6°53.0°
09/05 - 11:45 PM63.1°52.9°
09/05 - 11:30 PM62.4°53.9°
09/05 - 11:15 PM63.2°54.7°
09/05 - 11:00 PM63.5°54.3°
09/05 - 10:45 PM63.8°53.9°
09/05 - 10:30 PM63.8°55.3°
09/05 - 10:15 PM64.2°55.5°
09/05 - 10:00 PM64.5°56.7°
09/05 - 09:45 PM65.5°56.9°
09/05 - 09:30 PM65.8°56.2°
09/05 - 09:15 PM66.2°57.5°
09/05 - 09:00 PM66.9°58.1°
09/05 - 08:45 PM67.5°57.2°
09/05 - 08:30 PM68.3°57.6°
09/05 - 08:15 PM69.1°57.7°
09/05 - 08:00 PM70.4°58.5°
09/05 - 07:45 PM71.9°58.0°
09/05 - 07:30 PM73.5°57.2°
09/05 - 07:15 PM74.5°56.4°
09/05 - 07:00 PM76.8°58.0°
09/05 - 06:45 PM79.7°56.6°
09/05 - 06:30 PM82.1°54.9°
09/05 - 06:15 PM83.6°54.7°
09/05 - 06:00 PM84.9°54.9°
09/05 - 05:45 PM86.8°55.3°
09/05 - 05:30 PM91.2°56.8°
09/05 - 05:15 PM93.6°58.8°
09/05 - 05:00 PM94.3°59.2°
09/05 - 04:45 PM95.0°59.0°
09/05 - 04:30 PM95.2°59.6°
09/05 - 04:15 PM92.7°59.7°
09/05 - 04:00 PM91.3°59.6°
09/05 - 03:45 PM91.5°60.2°
09/05 - 03:30 PM90.8°60.5°
09/05 - 03:15 PM90.6°60.7°
09/05 - 03:00 PM88.5°60.4°
09/05 - 02:45 PM88.1°59.5°
09/05 - 02:30 PM87.2°59.9°
09/05 - 02:15 PM86.7°60.2°
09/05 - 02:00 PM86.0°60.5°
09/05 - 01:45 PM84.1°58.7°
09/05 - 01:30 PM85.2°59.7°
09/05 - 01:15 PM85.2°59.8°
09/05 - 01:00 PM84.4°59.8°
09/05 - 12:45 PM84.0°59.5°
09/05 - 12:30 PM83.4°59.3°
09/05 - 12:15 PM82.9°58.7°
09/05 - 12:00 PM82.2°58.7°
09/05 - 11:45 AM81.3°58.6°
09/05 - 11:30 AM81.0°58.5°
09/05 - 11:15 AM80.1°58.3°
09/05 - 11:00 AM79.3°58.4°
09/05 - 10:45 AM78.4°58.4°
09/05 - 10:30 AM77.4°58.6°
09/05 - 10:15 AM76.5°58.0°
09/05 - 10:00 AM76.4°58.3°
09/05 - 09:45 AM76.7°58.3°
09/05 - 09:30 AM76.3°58.4°
09/05 - 09:15 AM75.6°59.0°
09/05 - 09:00 AM74.5°59.1°
09/05 - 08:45 AM73.6°59.1°
09/05 - 08:30 AM72.5°58.6°
09/05 - 08:15 AM70.9°58.1°
09/05 - 08:00 AM69.1°57.5°
09/05 - 07:45 AM68.2°58.8°
09/05 - 07:30 AM65.2°59.7°
09/05 - 07:15 AM61.7°61.2°
09/05 - 07:00 AM58.6°58.6°
09/05 - 06:45 AM55.7°55.7°
09/05 - 06:30 AM54.6°54.6°
09/05 - 06:15 AM54.1°54.1°
09/05 - 06:00 AM54.2°54.2°
09/05 - 05:45 AM54.4°54.4°
09/05 - 05:30 AM54.6°54.6°
09/05 - 05:15 AM54.9°54.9°
09/05 - 05:00 AM55.0°55.0°
09/05 - 04:45 AM55.2°55.2°
09/05 - 04:30 AM55.5°55.5°
09/05 - 04:15 AM55.9°55.9°
09/05 - 04:00 AM56.2°56.2°
09/05 - 03:45 AM56.5°56.5°
09/05 - 03:30 AM56.8°56.8°
09/05 - 03:15 AM56.9°56.9°
09/05 - 03:00 AM56.7°56.7°
09/05 - 02:45 AM57.1°57.0°
09/05 - 02:30 AM57.5°57.3°
09/05 - 02:15 AM57.7°57.1°
09/05 - 02:00 AM58.0°57.2°
09/05 - 01:45 AM58.7°58.1°
09/05 - 01:30 AM59.1°58.6°
09/05 - 01:15 AM59.5°58.7°
09/05 - 01:00 AM59.9°58.8°
09/05 - 12:45 AM60.2°59.0°
09/05 - 12:30 AM60.5°59.2°
09/05 - 12:15 AM60.6°59.2°
09/05 - 12:00 AM61.2°59.9°
09/04 - 11:45 PM61.4°59.7°
09/04 - 11:30 PM61.8°59.7°
09/04 - 11:15 PM62.0°59.6°
09/04 - 11:00 PM62.2°59.8°
09/04 - 10:45 PM62.8°60.3°
09/04 - 10:30 PM63.2°60.6°
09/04 - 10:15 PM63.9°60.6°
09/04 - 10:00 PM64.4°60.4°
09/04 - 09:45 PM64.9°60.4°
09/04 - 09:30 PM65.4°60.5°
09/04 - 09:15 PM66.7°60.5°
09/04 - 09:00 PM67.5°59.5°
09/04 - 08:45 PM68.5°59.5°
09/04 - 08:30 PM69.3°59.7°
09/04 - 08:15 PM69.1°59.7°
09/04 - 08:00 PM70.4°60.7°
09/04 - 07:45 PM71.6°60.0°
09/04 - 07:30 PM73.0°59.6°
09/04 - 07:15 PM74.2°59.4°
09/04 - 07:00 PM75.8°59.5°
09/04 - 06:45 PM77.2°59.6°
09/04 - 06:30 PM78.5°59.4°
09/04 - 06:15 PM79.4°59.7°
09/04 - 06:00 PM80.3°60.1°
09/04 - 05:45 PM82.4°60.6°
09/04 - 05:30 PM86.6°61.8°
09/04 - 05:15 PM87.6°63.0°
09/04 - 05:00 PM86.9°62.2°
09/04 - 04:45 PM87.6°62.6°
09/04 - 04:30 PM87.6°62.7°
09/04 - 04:15 PM87.9°62.7°
09/04 - 04:00 PM86.7°62.6°
09/04 - 03:45 PM85.8°62.4°
09/04 - 03:30 PM85.6°62.6°
09/04 - 03:15 PM85.9°63.1°